Content
SEND FEEDBACK

Daily
Averages
Monthly
Summary
United States of America

MALDEN, MISSOURI


Home > North America > United States > Missouri
Elevation: 295 feet     Latitude: 36 36N     Longitude: 089 59W

WEATHER
 
SELECT A DAY
Number of Records: 211,124;   Date Range: 1/1/95 - 10/29/14
 
SHARE

PRINT THIS DATA

[ ← Previous Day ]
WEATHER ALMANAC - DECEMBER 6, 2013
[ Next Day → ]
[ °C ]   °F
Weather ElementAverageHighLow
Temperature25 °F30 °F (12:21 am)21 °F (10:53 pm)
Dewpoint17.6 °F24.1 °F (12:21 am)10.9 °F (10:53 pm)
Humidity73.7 %79 % (12:21 am)63 % (11:53 pm)
Barometer30.29 in30.56 in (11:53 pm)30.18 in (3:32 am)
Wind Speed15.3 mph21.9 mph (8:17 am)
Wind Gust26.5 mph (2:53 am)
Weather ElementAverage
Visibility3.3 mi
Wind DirectionSE (132.7 °)

Weather ElementTotal
Precipitation6.07 in
Heating Degree Days39.5 (Base 65)
Averaged from 63 records on December 6, 2013
WEATHER CONDITIONS BREAKOUT
WIND DIRECTION BREAKOUT
WEATHER BY HOUR - DECEMBER 6, 2013
[ °C ]   °F
Local TimeTemperatureDewpointHumidityBarometerVisibilityWind DirectionWind SpeedGust SpeedPrecipitationEventsConditions
12:21 AM30.0 °F24.1 °F79 %30.21 in4.0 miNorth (360°)15.0 mph0.08 inOvercast
12:53 AM28.9 °F21.9 °F75 %30.25 in5.0 miNorth (360°)12.7 mph0.12 inOvercast
1:24 AM28.9 °F21.9 °F75 %30.21 in6.0 miNorth (360°)13.8 mph23.0 mph0.02 inRainLight Freezing Rain
1:49 AM28.4 °F21.2 °F74 %30.21 in8.0 miNorth (10°)16.1 mph0.02 inOvercast
1:53 AM28.0 °F21.0 °F75 %30.24 in8.0 miNorth (10°)15.0 mph0.02 inOvercast
2:13 AM28.0 °F21.0 °F75 %30.20 in9.0 miNorth (10°)16.1 mph0.00 inOvercast
2:53 AM28.0 °F19.0 °F69 %30.21 in10.0 miNorth (10°)16.1 mph26.5 mph0.00 inOvercast
3:32 AM27.0 °F19.9 °F75 %30.18 in3.0 miNorth (360°)20.7 mph25.3 mph0.01 inOvercast
3:53 AM27.0 °F19.0 °F72 %30.22 in6.0 miNorth (10°)13.8 mph0.02 inOvercast
4:14 AM27.0 °F19.9 °F75 %30.20 in4.0 miNorth (10°)16.1 mph0.01 inOvercast
4:53 AM27.0 °F19.0 °F72 %30.23 in5.0 miNorth (10°)17.3 mph0.04 inOvercast
5:13 AM27.0 °F19.0 °F72 %30.22 in5.0 miNorth (360°)17.3 mph0.01 inRainLight Freezing Rain
5:32 AM26.1 °F18.0 °F71 %30.23 in4.0 miNorth (10°)19.6 mph25.3 mph0.04 inSnowLight Snow
5:44 AM26.1 °F19.0 °F75 %30.25 in1.8 miNorth (10°)13.8 mph26.5 mph0.05 inSnowLight Snow
5:53 AM25.0 °F18.0 °F75 %30.27 in1.8 miNorth (10°)17.3 mph0.06 inSnowLight Snow
6:03 AM25.0 °F18.0 °F75 %30.23 in1.2 miNNE (20°)16.1 mph0.01 inSnowLight Snow
6:16 AM25.0 °F19.0 °F78 %30.23 in0.8 miNorth (10°)15.0 mph0.18 inSnowLight Snow
6:35 AM25.0 °F18.0 °F75 %30.24 in1.2 miNorth (10°)19.6 mph0.18 inSnowLight Snow
6:51 AM24.8 °F17.6 °F74 %30.26 in0.8 miNNE (20°)12.7 mph0.39 inHaze
6:53 AM25.0 °F18.0 °F75 %30.27 in0.8 miNorth (10°)16.1 mph0.55 inHaze
7:00 AM24.1 °F18.0 °F77 %30.25 in1.0 miNorth (10°)15.0 mph23.0 mph0.04 inHaze
7:09 AM24.1 °F18.0 °F77 %30.24 in0.8 miNNE (20°)16.1 mph0.10 inHaze
7:25 AM24.1 °F18.0 °F77 %30.26 in0.5 miNorth (10°)19.6 mph25.3 mph0.13 inHaze
7:37 AM24.1 °F18.0 °F77 %30.26 in1.0 miNNE (20°)16.1 mph0.13 inHaze
7:53 AM24.1 °F18.0 °F77 %30.27 in0.5 miNNE (20°)16.1 mph0.13 inHaze
8:17 AM24.1 °F17.1 °F75 %30.27 in0.2 miNNE (20°)21.9 mph26.5 mphHaze
8:26 AM24.1 °F18.0 °F77 %30.28 in0.2 miNorth (10°)17.3 mphHaze
8:53 AM24.1 °F18.0 °F77 %30.30 in0.2 miNorth (10°)11.5 mphHaze
9:07 AM24.1 °F17.1 °F75 %30.28 in0.5 miNorth (10°)15.0 mphHaze
9:25 AM24.1 °F17.1 °F75 %30.27 in0.5 miNNE (20°)13.8 mphHaze
9:41 AM24.1 °F18.0 °F77 %30.26 in0.2 miNorth (10°)16.1 mph24.2 mphHaze
9:53 AM24.1 °F18.0 °F77 %30.32 in0.2 miNorth (360°)15.0 mphHaze
10:04 AM24.1 °F17.1 °F75 %30.28 in0.5 miNorth (10°)12.7 mph0.11 inSnowSnow
10:18 AM24.1 °F17.1 °F75 %30.29 in1.0 miNorth (10°)16.1 mph0.17 inSnowLight Snow
10:40 AM24.1 °F17.1 °F75 %30.30 in0.5 miNorth (360°)16.1 mph0.17 inSnowSnow
10:53 AM24.1 °F17.1 °F75 %30.31 in0.8 miNorth (10°)15.0 mph0.22 inSnowLight Snow
11:04 AM24.1 °F17.1 °F75 %30.28 in0.5 miNorth (10°)13.8 mph26.5 mph0.03 inSnowSnow
11:14 AM24.1 °F17.1 °F75 %30.28 in0.2 miNorth (10°)16.1 mph0.05 inSnowHeavy Snow
11:31 AM24.1 °F17.1 °F75 %30.27 in0.5 miNorth (10°)18.4 mph24.2 mph0.06 inSnowSnow
11:43 AM24.1 °F18.0 °F77 %30.27 in0.8 miNorth (10°)15.0 mph0.14 inSnowLight Snow
11:50 AM24.8 °F17.6 °F74 %30.26 in1.0 miNorth (10°)13.8 mph0.23 inSnowLight Snow
11:53 AM25.0 °F18.0 °F75 %30.28 in1.0 miNorth (360°)12.7 mph0.24 inSnowLight Snow
12:20 PM25.0 °F17.1 °F72 %30.27 in1.8 miNorth (360°)15.0 mph0.01 inSnowLight Snow
12:53 PM25.0 °F18.0 °F75 %30.30 in1.2 miNorth (10°)17.3 mph0.03 inSnowLight Snow
1:15 PM25.0 °F18.0 °F75 %30.27 in0.8 miNorth (360°)15.0 mph0.00 inSnowLight Snow
1:41 PM25.0 °F18.0 °F75 %30.27 in1.0 miNorth (10°)12.7 mph0.00 inSnowLight Snow
1:53 PM25.0 °F18.0 °F75 %30.32 in1.2 miNorth (350°)11.5 mph0.00 inSnowLight Snow
2:26 PM25.0 °F17.1 °F72 %30.30 in0.8 miNorth (360°)19.6 mph0.02 inSnowLight Snow
2:53 PM25.0 °F18.0 °F75 %30.32 in0.8 miNorth (360°)12.7 mph0.22 inSnowLight Snow
3:02 PM25.0 °F18.0 °F75 %30.30 in1.2 miNorth (350°)12.7 mph0.00 inSnowLight Snow
3:41 PM25.0 °F16.0 °F69 %30.29 in3.0 miNNE (20°)18.4 mph25.3 mph0.01 inSnowLight Snow
3:48 PM24.8 °F15.8 °F69 %30.29 in5.0 miNNE (20°)18.4 mph0.01 inSnowLight Snow
3:53 PM24.1 °F16.0 °F71 %30.33 in6.0 miNorth (10°)17.3 mph0.01 inSnowLight Snow
4:26 PM24.1 °F16.0 °F71 %30.32 in5.0 miNorth (360°)17.3 mph0.00 inSnowLight Snow
4:38 PM24.1 °F16.0 °F71 %30.34 in4.0 miNorth (360°)15.0 mph0.00 inSnowLight Snow
4:53 PM24.1 °F16.0 °F71 %30.37 in8.0 miNorth (10°)13.8 mph0.00 inSnowLight Snow
5:53 PM24.1 °F16.0 °F71 %30.42 in10.0 miNorth (360°)10.4 mph0.00 inOvercast
6:53 PM24.1 °F15.1 °F69 %30.45 in10.0 miNorth (10°)13.8 mph0.02 inOvercast
7:53 PM24.1 °F15.1 °F69 %30.48 in10.0 miNorth (350°)9.2 mph1.02 inOvercast
8:53 PM23.0 °F14.0 °F68 %30.50 in10.0 miNorth (350°)12.7 mph0.18 inOvercast
9:53 PM21.9 °F12.0 °F66 %30.53 in10.0 miNorth (360°)13.8 mph0.28 inOvercast
10:53 PM21.0 °F10.9 °F65 %30.55 in10.0 miNorth (350°)10.4 mph0.37 inOvercast
11:53 PM21.9 °F10.9 °F63 %30.56 in10.0 miNorth (350°)13.8 mph0.13 inOvercast
Hourly data recorded from KPOF, located miles away from Malden, Missouri







STORIES FROM OUR PARTNERS